Location: Mount Cross
(36.6390°N, 79.4878°W)
Time: 22:46:51
(UTC+00:00)

FENGYUN 1C DEB - Visible Passes

Search period start: 01 December 2023 00:00
Search period end: 11 December 2023 00:00
Orbit: 606 x 935 km, 98.4° (Epoch: 01 December)

Date Brightness Start Highest point End Pass type
(mag) Time Alt. Az. Time Alt. Az. Time Alt. Az.
01 Dec ? 00:52:42 10° SSW 00:57:35 32° W 01:02:46 10° NNW visible
01 Dec ? 11:28:25 10° ENE 11:31:03 13° E 11:33:36 10° ESE visible
01 Dec ? 22:40:25 10° E 22:43:55 17° ENE 22:47:31 10° NNE visible
02 Dec ? 00:16:45 10° S 00:22:15 68° W 00:28:09 10° NNW visible
02 Dec ? 23:41:40 10° SSE 23:47:10 59° ENE 23:52:59 10° N visible
03 Dec ? 01:22:57 10° SW 01:26:37 18° W 01:30:26 10° NW visible
03 Dec ? 23:07:25 10° SE 23:12:16 30° ENE 23:17:18 10° N visible
04 Dec ? 00:45:58 10° SSW 00:51:07 37° W 00:56:34 10° NNW visible
04 Dec ? 11:23:06 10° ENE 11:24:28 11° E 11:25:48 10° ESE visible
04 Dec ? 22:34:23 10° E 22:37:34 15° ENE 22:40:48 10° NNE visible
05 Dec ? 00:10:10 10° S 00:15:48 78° WSW 00:21:48 10° NNW visible
05 Dec ? 23:35:13 10° SSE 23:40:43 53° ENE 23:46:30 10° N visible
06 Dec ? 01:15:54 10° SW 01:20:04 21° W 01:24:23 10° NW visible
06 Dec ? 23:01:07 10° ESE 23:05:51 27° ENE 23:10:42 10° NNE visible
07 Dec ? 00:39:11 10° SSW 00:44:35 43° W 00:50:14 10° NNW visible
07 Dec ? 22:28:25 10° E 22:31:08 14° ENE 22:33:54 10° NNE visible
08 Dec ? 00:03:33 10° SSE 00:09:18 88° WSW 00:15:19 10° NNW visible
08 Dec ? 01:47:57 10° W 01:49:06 11° W 01:50:15 10° WNW visible
08 Dec ? 23:28:44 10° SE 23:34:14 47° ENE 23:39:56 10° N visible
09 Dec ? 01:08:52 10° SW 01:13:26 24° W 01:18:09 10° NW visible
09 Dec ? 11:43:16 10° NE 11:46:47 18° E 11:50:06 10° SE visible
09 Dec ? 22:54:48 10° ESE 22:59:21 24° ENE 23:03:58 10° NNE visible
10 Dec ? 00:32:24 10° S 00:37:59 49° W 00:43:46 10° NNW visible
